Eastsound, WA
on Tuesday, February 5, 2013

Tuesday
Previous Day Next Day
Daily Summary
 ActualAverage (KBLI)Record (KBLI)
Temperature
Mean Temperature °F / °C 40°F / 4°C  
Max Temperature 48°F / 9°C 48°F / 9°C 60°F / 15°C (1963)
Min Temperature 41°F / 5°C 33°F / 1°C 10°F / -12°C (1949)
Degree Days
Heating Degree Days 20 25  
Month to date heating degree days 125  
Cooling Degree Days 0 0  
Month to date cooling degree days 0  
Year to date cooling degree days 0  
Moisture
Dew Point 41°F / 5°C   
Average Humidity 83    
Maximum Humidity 100    
Minimum Humidity 76    
Precipitation
Precipitation 0.00 in / 0.00 cm 0.11 in / 2.79 cm 1.07 in / 2.72 cm (1965)
Month to date precipitation 0.58  
Year to date precipitation 5.25  
Wind
Wind Speed 6 mph / 10 km/h   
Max Wind Speed 13 mph / 21 km/h   
Max Gust Speed 22 mph / 35 km/h   
Visibility 10 miles / 15 kilometers   
Events Rain   

Key: T is trace of precipitation, MM is missing value
Source: NWS Daily Summary
Time(PST)TemperatureDew PointHumidity Pressure Visibility Wind DirectionWind SpeedGust SpeedPrecipitationEvents Conditions
12:15 AM 41.0°F / 5.0°C 41.0°F / 5.0°C 100% 29.81 in / 1009.4 hPa 8.0 miles / 12.9 kilometers Calm Calm - N/A   Partly Cloudy
12:35 AM 42.8°F / 6.0°C 41.0°F / 5.0°C 93% 29.80 in / 1009.0 hPa 9.0 miles / 14.5 kilometers Calm Calm - N/A   Scattered Clouds
12:55 AM 41.0°F / 5.0°C 41.0°F / 5.0°C 100% 29.80 in / 1009.0 hPa 8.0 miles / 12.9 kilometers Calm Calm - N/A   Mostly Cloudy
1:15 AM 41.0°F / 5.0°C 41.0°F / 5.0°C 100% 29.78 in / 1008.4 hPa 8.0 miles / 12.9 kilometers North - - N/A   Scattered Clouds
1:35 AM 42.8°F / 6.0°C 41.0°F / 5.0°C 93% 29.78 in / 1008.4 hPa 10.0 miles / 16.1 kilometers Calm Calm - N/A   Mostly Cloudy
1:55 AM 46.4°F / 8.0°C 41.0°F / 5.0°C 81% 29.78 in / 1008.4 hPa 10.0 miles / 16.1 kilometers SSW 8.1 mph / 13.0 km/h - N/A   Overcast
2:15 AM 46.4°F / 8.0°C 41.0°F / 5.0°C 81% 29.78 in / 1008.4 hPa 10.0 miles / 16.1 kilometers South 8.1 mph / 13.0 km/h - N/A   Overcast
2:55 AM 44.6°F / 7.0°C 41.0°F / 5.0°C 87% 29.80 in / 1009.0 hPa 10.0 miles / 16.1 kilometers SSW 12.7 mph / 20.4 km/h - N/A   Mostly Cloudy
3:15 AM 46.4°F / 8.0°C 41.0°F / 5.0°C 81% 29.80 in / 1009.0 hPa 10.0 miles / 16.1 kilometers SSW 11.5 mph / 18.5 km/h - N/A   Scattered Clouds
3:35 AM 46.4°F / 8.0°C 41.0°F / 5.0°C 81% 29.79 in / 1008.7 hPa 10.0 miles / 16.1 kilometers South 10.4 mph / 16.7 km/h - N/A   Mostly Cloudy
3:55 AM 46.4°F / 8.0°C 41.0°F / 5.0°C 81% 29.79 in / 1008.7 hPa 9.0 miles / 14.5 kilometers South 9.2 mph / 14.8 km/h - N/A Rain Light Rain
4:15 AM 46.4°F / 8.0°C 39.2°F / 4.0°C 76% 29.78 in / 1008.4 hPa 10.0 miles / 16.1 kilometers South 5.8 mph / 9.3 km/h - N/A Rain Light Rain
4:35 AM 46.4°F / 8.0°C 41.0°F / 5.0°C 81% 29.77 in / 1008.0 hPa 9.0 miles / 14.5 kilometers South 9.2 mph / 14.8 km/h - N/A Rain Light Rain
4:55 AM 46.4°F / 8.0°C 41.0°F / 5.0°C 81% 29.77 in / 1008.0 hPa 10.0 miles / 16.1 kilometers South 10.4 mph / 16.7 km/h 16.1 mph / 25.9 km/h N/A   Clear
5:15 AM 46.4°F / 8.0°C 41.0°F / 5.0°C 81% 29.78 in / 1008.4 hPa 10.0 miles / 16.1 kilometers South 10.4 mph / 16.7 km/h 17.3 mph / 27.8 km/h N/A   Partly Cloudy
5:55 AM 46.4°F / 8.0°C 41.0°F / 5.0°C 81% 29.77 in / 1008.0 hPa 10.0 miles / 16.1 kilometers South 9.2 mph / 14.8 km/h - N/A   Scattered Clouds
6:15 AM 46.4°F / 8.0°C 39.2°F / 4.0°C 76% 29.76 in / 1007.7 hPa 10.0 miles / 16.1 kilometers South 9.2 mph / 14.8 km/h 16.1 mph / 25.9 km/h N/A   Scattered Clouds
6:35 AM 46.4°F / 8.0°C 39.2°F / 4.0°C 76% 29.76 in / 1007.7 hPa 10.0 miles / 16.1 kilometers South 10.4 mph / 16.7 km/h 20.7 mph / 33.3 km/h N/A   Scattered Clouds
6:55 AM 46.4°F / 8.0°C 39.2°F / 4.0°C 76% 29.77 in / 1008.0 hPa 10.0 miles / 16.1 kilometers South 10.4 mph / 16.7 km/h 19.6 mph / 31.5 km/h N/A   Mostly Cloudy
7:15 AM 46.4°F / 8.0°C 39.2°F / 4.0°C 76% 29.77 in / 1008.0 hPa 10.0 miles / 16.1 kilometers South 12.7 mph / 20.4 km/h 19.6 mph / 31.5 km/h N/A   Mostly Cloudy
7:35 AM 46.4°F / 8.0°C 39.2°F / 4.0°C 76% 29.78 in / 1008.4 hPa 10.0 miles / 16.1 kilometers South 12.7 mph / 20.4 km/h 20.7 mph / 33.3 km/h N/A   Overcast
7:55 AM 46.4°F / 8.0°C 39.2°F / 4.0°C 76% 29.78 in / 1008.4 hPa 10.0 miles / 16.1 kilometers South 12.7 mph / 20.4 km/h 21.9 mph / 35.2 km/h N/A   Mostly Cloudy
8:15 AM 46.4°F / 8.0°C 39.2°F / 4.0°C 76% 29.79 in / 1008.7 hPa 10.0 miles / 16.1 kilometers South 11.5 mph / 18.5 km/h 17.3 mph / 27.8 km/h N/A   Mostly Cloudy
8:55 AM 46.4°F / 8.0°C 41.0°F / 5.0°C 81% 29.80 in / 1009.0 hPa 10.0 miles / 16.1 kilometers SSW 12.7 mph / 20.4 km/h 19.6 mph / 31.5 km/h N/A   Scattered Clouds
9:15 AM 46.4°F / 8.0°C 41.0°F / 5.0°C 81% 29.81 in / 1009.4 hPa 10.0 miles / 16.1 kilometers South 8.1 mph / 13.0 km/h 17.3 mph / 27.8 km/h N/A   Overcast
9:35 AM 46.4°F / 8.0°C 41.0°F / 5.0°C 81% 29.81 in / 1009.4 hPa 10.0 miles / 16.1 kilometers South 4.6 mph / 7.4 km/h - N/A   Mostly Cloudy
9:55 AM 46.4°F / 8.0°C 41.0°F / 5.0°C 81% 29.80 in / 1009.0 hPa 10.0 miles / 16.1 kilometers South 8.1 mph / 13.0 km/h - N/A   Scattered Clouds
10:15 AM 46.4°F / 8.0°C 41.0°F / 5.0°C 81% 29.80 in / 1009.0 hPa 10.0 miles / 16.1 kilometers South 6.9 mph / 11.1 km/h - N/A   Clear
10:35 AM 46.4°F / 8.0°C 41.0°F / 5.0°C 81% 29.80 in / 1009.0 hPa 10.0 miles / 16.1 kilometers South 5.8 mph / 9.3 km/h - N/A   Clear
11:15 AM 46.4°F / 8.0°C 41.0°F / 5.0°C 81% 29.80 in / 1009.0 hPa 10.0 miles / 16.1 kilometers South 6.9 mph / 11.1 km/h - N/A   Partly Cloudy
11:35 AM 46.4°F / 8.0°C 41.0°F / 5.0°C 81% 29.80 in / 1009.0 hPa 10.0 miles / 16.1 kilometers South 6.9 mph / 11.1 km/h - N/A   Mostly Cloudy
11:55 AM 46.4°F / 8.0°C 41.0°F / 5.0°C 81% 29.80 in / 1009.0 hPa 10.0 miles / 16.1 kilometers South 5.8 mph / 9.3 km/h - N/A   Overcast
12:15 PM 46.4°F / 8.0°C 41.0°F / 5.0°C 81% 29.79 in / 1008.7 hPa 10.0 miles / 16.1 kilometers SSE 4.6 mph / 7.4 km/h - N/A   Overcast
12:35 PM 46.4°F / 8.0°C 41.0°F / 5.0°C 81% 29.78 in / 1008.4 hPa 10.0 miles / 16.1 kilometers SSE 4.6 mph / 7.4 km/h - N/A   Overcast
12:55 PM 46.4°F / 8.0°C 41.0°F / 5.0°C 81% 29.78 in / 1008.4 hPa 10.0 miles / 16.1 kilometers South 9.2 mph / 14.8 km/h - N/A   Overcast
1:15 PM 46.4°F / 8.0°C 41.0°F / 5.0°C 81% 29.78 in / 1008.4 hPa 10.0 miles / 16.1 kilometers SSW 10.4 mph / 16.7 km/h 18.4 mph / 29.6 km/h N/A   Mostly Cloudy
1:35 PM 46.4°F / 8.0°C 42.8°F / 6.0°C 87% 29.76 in / 1007.7 hPa 10.0 miles / 16.1 kilometers South 11.5 mph / 18.5 km/h 17.3 mph / 27.8 km/h N/A   Scattered Clouds
1:55 PM 48.2°F / 9.0°C 42.8°F / 6.0°C 82% 29.75 in / 1007.3 hPa 10.0 miles / 16.1 kilometers South 5.8 mph / 9.3 km/h - N/A   Partly Cloudy
2:15 PM 48.2°F / 9.0°C 41.0°F / 5.0°C 76% 29.75 in / 1007.3 hPa 10.0 miles / 16.1 kilometers South 9.2 mph / 14.8 km/h - N/A   Partly Cloudy
2:35 PM 48.2°F / 9.0°C 41.0°F / 5.0°C 76% 29.75 in / 1007.3 hPa 10.0 miles / 16.1 kilometers South 4.6 mph / 7.4 km/h - N/A   Clear
3:15 PM 48.2°F / 9.0°C 41.0°F / 5.0°C 76% 29.76 in / 1007.7 hPa 10.0 miles / 16.1 kilometers South 5.8 mph / 9.3 km/h - N/A   Partly Cloudy
3:35 PM 48.2°F / 9.0°C 41.0°F / 5.0°C 76% 29.76 in / 1007.7 hPa 10.0 miles / 16.1 kilometers South 8.1 mph / 13.0 km/h - N/A   Clear
3:55 PM 48.2°F / 9.0°C 41.0°F / 5.0°C 76% 29.75 in / 1007.3 hPa 10.0 miles / 16.1 kilometers South 5.8 mph / 9.3 km/h - N/A   Partly Cloudy
4:15 PM 48.2°F / 9.0°C 41.0°F / 5.0°C 76% 29.75 in / 1007.3 hPa 10.0 miles / 16.1 kilometers South 8.1 mph / 13.0 km/h - N/A   Partly Cloudy
4:35 PM 48.2°F / 9.0°C 41.0°F / 5.0°C 76% 29.73 in / 1006.7 hPa 10.0 miles / 16.1 kilometers South 10.4 mph / 16.7 km/h 18.4 mph / 29.6 km/h N/A   Scattered Clouds
4:55 PM 48.2°F / 9.0°C 41.0°F / 5.0°C 76% 29.74 in / 1007.0 hPa 10.0 miles / 16.1 kilometers South 11.5 mph / 18.5 km/h 20.7 mph / 33.3 km/h N/A   Partly Cloudy
5:15 PM 46.4°F / 8.0°C 41.0°F / 5.0°C 81% 29.75 in / 1007.3 hPa 10.0 miles / 16.1 kilometers South 11.5 mph / 18.5 km/h 19.6 mph / 31.5 km/h N/A Rain Light Rain
5:55 PM 46.4°F / 8.0°C 42.8°F / 6.0°C 87% 29.75 in / 1007.3 hPa 10.0 miles / 16.1 kilometers South 6.9 mph / 11.1 km/h - N/A Rain Light Rain
6:15 PM 46.4°F / 8.0°C 42.8°F / 6.0°C 87% 29.76 in / 1007.7 hPa 10.0 miles / 16.1 kilometers SSW 9.2 mph / 14.8 km/h - N/A   Clear
6:35 PM 46.4°F / 8.0°C 42.8°F / 6.0°C 87% 29.77 in / 1008.0 hPa 8.0 miles / 12.9 kilometers SSW 10.4 mph / 16.7 km/h - N/A Rain Light Rain
7:15 PM 44.6°F / 7.0°C 39.2°F / 4.0°C 81% 29.78 in / 1008.4 hPa 10.0 miles / 16.1 kilometers South 3.5 mph / 5.6 km/h - N/A   Scattered Clouds
7:35 PM 42.8°F / 6.0°C 39.2°F / 4.0°C 87% 29.78 in / 1008.4 hPa 10.0 miles / 16.1 kilometers SSW 5.8 mph / 9.3 km/h - N/A   Scattered Clouds
7:55 PM 44.6°F / 7.0°C 39.2°F / 4.0°C 81% 29.78 in / 1008.4 hPa 10.0 miles / 16.1 kilometers SW 11.5 mph / 18.5 km/h 17.3 mph / 27.8 km/h N/A Rain Light Rain
8:15 PM 44.6°F / 7.0°C 39.2°F / 4.0°C 81% 29.78 in / 1008.4 hPa 10.0 miles / 16.1 kilometers South 8.1 mph / 13.0 km/h - N/A   Partly Cloudy
8:35 PM 44.6°F / 7.0°C 39.2°F / 4.0°C 81% 29.79 in / 1008.7 hPa 10.0 miles / 16.1 kilometers South 6.9 mph / 11.1 km/h - N/A   Clear
8:55 PM 44.6°F / 7.0°C 41.0°F / 5.0°C 87% 29.80 in / 1009.0 hPa 10.0 miles / 16.1 kilometers SE 3.5 mph / 5.6 km/h - N/A   Clear
9:15 PM 44.6°F / 7.0°C 39.2°F / 4.0°C 81% 29.82 in / 1009.7 hPa 10.0 miles / 16.1 kilometers Calm Calm - N/A   Scattered Clouds
9:35 PM 44.6°F / 7.0°C 41.0°F / 5.0°C 87% 29.83 in / 1010.0 hPa 10.0 miles / 16.1 kilometers Calm Calm - N/A   Mostly Cloudy
9:55 PM 42.8°F / 6.0°C 41.0°F / 5.0°C 93% 29.83 in / 1010.0 hPa 10.0 miles / 16.1 kilometers Calm Calm - N/A   Mostly Cloudy
10:15 PM 44.6°F / 7.0°C 41.0°F / 5.0°C 87% 29.84 in / 1010.4 hPa 10.0 miles / 16.1 kilometers SSW 6.9 mph / 11.1 km/h - N/A   Overcast
10:35 PM 42.8°F / 6.0°C 41.0°F / 5.0°C 93% 29.85 in / 1010.7 hPa 3.0 miles / 4.8 kilometers North - - N/A Rain Light Rain
10:55 PM 42.8°F / 6.0°C 41.0°F / 5.0°C 93% 29.85 in / 1010.7 hPa 4.0 miles / 6.4 kilometers SW 6.9 mph / 11.1 km/h - N/A   Overcast
11:15 PM 42.8°F / 6.0°C 41.0°F / 5.0°C 93% 29.86 in / 1011.1 hPa 10.0 miles / 16.1 kilometers South 5.8 mph / 9.3 km/h - N/A   Mostly Cloudy
11:35 PM 42.8°F / 6.0°C 41.0°F / 5.0°C 93% 29.86 in / 1011.1 hPa 10.0 miles / 16.1 kilometers South 4.6 mph / 7.4 km/h - N/A   Mostly Cloudy
11:55 PM 42.8°F / 6.0°C 41.0°F / 5.0°C 93% 29.86 in / 1011.1 hPa 10.0 miles / 16.1 kilometers South 8.1 mph / 13.0 km/h - N/A   Scattered Clouds
Moon Phase
Feb. 05 Feb. 10 Feb. 17 Feb. 25 Mar. 04
Sunrise:07:35 AM (PST) Moon Rise:03:32 AM (PST)2/5
Sunset:05:17 PM (PST) Moon Set:12:29 PM (PST)2/5

Copyright © 2014 The Weather Underground, Inc.